TimeCDT,TemperatureF,Dew PointF,Humidity,Sea Level PressureIn,VisibilityMPH,Wind Direction,Wind SpeedMPH,Gust SpeedMPH,PrecipitationIn,Events,Conditions,WindDirDegrees,DateUTC
12:54 AM,75.0,62.1,64,30.05,10.0,NNW,6.9,-,N/A,,Mostly Cloudy,330,2013-09-12 05:54:00
1:54 AM,73.0,63.0,71,30.05,10.0,West,4.6,-,N/A,,Overcast,270,2013-09-12 06:54:00
2:54 AM,72.0,60.1,66,30.06,10.0,NW,8.1,-,N/A,,Overcast,320,2013-09-12 07:54:00
3:54 AM,69.1,61.0,75,30.07,10.0,NW,8.1,-,N/A,,Mostly Cloudy,320,2013-09-12 08:54:00
4:54 AM,69.1,59.0,70,30.08,10.0,North,9.2,-,N/A,,Scattered Clouds,350,2013-09-12 09:54:00
5:54 AM,69.1,55.0,61,30.09,10.0,North,11.5,-,N/A,,Scattered Clouds,10,2013-09-12 10:54:00
6:54 AM,66.9,54.0,63,30.10,10.0,North,12.7,-,N/A,,Scattered Clouds,360,2013-09-12 11:54:00
7:54 AM,68.0,52.0,56,30.12,10.0,North,11.5,-,N/A,,Partly Cloudy,10,2013-09-12 12:54:00
8:54 AM,70.0,51.1,51,30.14,10.0,North,11.5,-,N/A,,Partly Cloudy,10,2013-09-12 13:54:00
9:54 AM,73.0,50.0,44,30.15,10.0,NNE,13.8,-,N/A,,Partly Cloudy,20,2013-09-12 14:54:00
10:54 AM,75.9,48.0,37,30.17,10.0,North,13.8,-,N/A,,Partly Cloudy,10,2013-09-12 15:54:00
11:54 AM,78.1,45.0,31,30.17,10.0,NNE,15.0,-,N/A,,Partly Cloudy,30,2013-09-12 16:54:00
12:54 PM,79.0,42.1,27,30.16,10.0,North,11.5,23.0,N/A,,Partly Cloudy,10,2013-09-12 17:54:00
1:54 PM,79.0,41.0,26,30.14,10.0,NNE,15.0,24.2,N/A,,Partly Cloudy,20,2013-09-12 18:54:00
2:54 PM,79.0,42.1,27,30.13,10.0,NE,10.4,26.5,N/A,,Partly Cloudy,40,2013-09-12 19:54:00
3:54 PM,80.1,43.0,27,30.12,10.0,North,13.8,24.2,N/A,,Partly Cloudy,10,2013-09-12 20:54:00
4:54 PM,79.0,43.0,28,30.12,10.0,NNW,13.8,24.2,N/A,,Partly Cloudy,340,2013-09-12 21:54:00
5:54 PM,77.0,43.0,30,30.12,10.0,North,11.5,21.9,N/A,,Partly Cloudy,350,2013-09-12 22:54:00
6:54 PM,75.0,44.1,33,30.13,10.0,North,11.5,-,N/A,,Partly Cloudy,10,2013-09-12 23:54:00
7:54 PM,72.0,46.0,40,30.14,10.0,North,6.9,-,N/A,,Partly Cloudy,10,2013-09-13 00:54:00
8:54 PM,70.0,46.9,44,30.16,10.0,North,4.6,-,N/A,,Partly Cloudy,10,2013-09-13 01:54:00
9:54 PM,66.9,48.0,51,30.16,10.0,North,5.8,-,N/A,,Partly Cloudy,360,2013-09-13 02:54:00
10:54 PM,66.0,48.0,52,30.16,10.0,North,5.8,-,N/A,,Partly Cloudy,10,2013-09-13 03:54:00
11:54 PM,64.0,48.0,56,30.17,10.0,NNE,5.8,-,N/A,,Partly Cloudy,20,2013-09-13 04:54:00